Satellite: RS-38 Catalog number: 35869 Epoch time: 11349.61523802 Element set: 970 Inclination: 098.6792 deg RA of node: 042.1822 deg Eccentricity: 0.0003966 Arg of perigee: 221.1162 deg Mean anomaly: 138.9726 deg Mean motion: 14.22044289 rev/day Decay rate: 1.21e-06 rev/day^2 Epoch rev: 11638 Checksum: 307
Satellite: ARISSAT1 Catalog number: 37772 Epoch time: 11349.78566644 Element set: 410 Inclination: 051.6343 deg RA of node: 316.9837 deg Eccentricity: 0.0008591 Arg of perigee: 123.8765 deg Mean anomaly: 312.8303 deg Mean motion: 15.94498668 rev/day Decay rate: 4.02193e-03 rev/day^2 Epoch rev: 2097 Checksum: 333
Satellite: SRMSAT Catalog number: 37839 Epoch time: 11347.46882072 Element set: 0051 Inclination: 019.9591 deg RA of node: 049.3605 deg Eccentricity: 0.0019241 Arg of perigee: 327.1509 deg Mean anomaly: 032.7697 deg Mean motion: 14.12005612 rev/day Decay rate: 6.19e-06 rev/day^2 Epoch rev: 00882 Checksum: 293
Satellite: JUGNU Catalog number: 37841 Epoch time: 11348.47284851 Element set: 0048 Inclination: 019.9701 deg RA of node: 044.5172 deg Eccentricity: 0.0011918 Arg of perigee: 313.2184 deg Mean anomaly: 046.7163 deg Mean motion: 14.10098656 rev/day Decay rate: 2.64e-06 rev/day^2 Epoch rev: 00895 Checksum: 293
Satellite: RAX-2 Catalog number: 37853 Epoch time: 11348.97707453 Element set: 0045 Inclination: 101.7040 deg RA of node: 300.1986 deg Eccentricity: 0.0253463 Arg of perigee: 158.2468 deg Mean anomaly: 202.9720 deg Mean motion: 14.78206784 rev/day Decay rate: 4.727e-05 rev/day^2 Epoch rev: 00702 Checksum: 300
Satellite: AUBIESAT Catalog number: 37854 Epoch time: 11348.97076575 Element set: 0049 Inclination: 101.7074 deg RA of node: 300.2253 deg Eccentricity: 0.0255367 Arg of perigee: 157.7228 deg Mean anomaly: 203.5291 deg Mean motion: 14.78432477 rev/day Decay rate: 5.386e-05 rev/day^2 Epoch rev: 00700 Checksum: 304
Satellite: HRBE Catalog number: 37855 Epoch time: 11349.85157742 Element set: 44 Inclination: 101.7081 deg RA of node: 301.5043 deg Eccentricity: 0.0254897 Arg of perigee: 155.2214 deg Mean anomaly: 206.1479 deg Mean motion: 14.78388838 rev/day Decay rate: 4.692e-05 rev/day^2 Epoch rev: 713 Checksum: 309
/EX